Hourly Data Report for October 04, 2014

All times are specified in Local Standard Time (LST). Add 1 hour to adjust for Daylight Saving Time where and when it is observed.

BAKER LAKE A
NUNAVUT

64°17'56.000" N
96°04'40.000" W
18.60 m
2300503
71926
YBK

Download Data

Hourly Data (October 2014)
Hourly Data Report for October 4, 2014
Temp Definition
°C
Dew Point Temp Definition
°C
Rel Hum Definition
%
Wind Dir Definition
10's deg

Wind Spd Definition
km/h
Visibility Definition
km
Stn Press Definition
kPa
Hmdx Definition


Wind Chill Definition


Weather Definition


TIME
00:00 Legend Double Dagger -5.4 -9.3 74 4 16 24.1 101.54   -11 Cloudy
01:00 Legend Double Dagger -5.6 -9.0 77 1 12 24.1 101.56   -11 LegendNANA
02:00 Legend Double Dagger -5.5 -8.8 78 3 12 24.1 101.54   -10 LegendNANA
03:00 Legend Double Dagger -5.4 -8.5 79 1 11 24.1 101.54   -10 Cloudy
04:00
05:00 Legend Double Dagger -5.2 -8.3 79 1 12 24.1 101.50   -10 LegendNANA
06:00 Legend Double Dagger -5.3 -8.1 81 1 12 24.1 101.48   -10 Cloudy
07:00 Legend Double Dagger -5.1 -8.0 80 2 15 24.1 101.47   -11 LegendNANA
08:00 Legend Double Dagger -4.9 -7.7 81 2 16 24.1 101.44   -11 LegendNANA
09:00 Legend Double Dagger -4.5 -7.3 81 2 15 24.1 101.45   -10 Cloudy
10:00 Legend Double Dagger -4.3 -7.3 80 2 19 32.2 101.43   -10 LegendNANA
11:00 Legend Double Dagger -4.2 -7.7 77 2 16 24.1 101.40   -10 LegendNANA
12:00 Legend Double Dagger -4.1 -7.6 77 2 16 24.1 101.36   -10 Cloudy
13:00 Legend Double Dagger -4.1 -7.6 77 5 14 24.1 101.38   -9 LegendNANA
14:00 Legend Double Dagger -4.1 -7.7 76 5 14 24.1 101.37   -9 LegendNANA
15:00 Legend Double Dagger -4.2 -7.8 76 1 16 24.1 101.34   -10 Cloudy
16:00 Legend Double Dagger -4.3 -7.8 77 2 20 24.1 101.35   -11 LegendNANA
17:00 Legend Double Dagger -4.4 -7.8 77 1 18 24.1 101.37   -10 LegendNANA
18:00 Legend Double Dagger -4.4 -7.7 78 1 18 24.1 101.36   -10 Cloudy
19:00 Legend Double Dagger -4.6 -8.2 76 2 19 24.1 101.35   -11 LegendNANA
20:00 Legend Double Dagger -4.6 -8.6 74 2 23 24.1 101.34   -12 LegendNANA
21:00 Legend Double Dagger -4.6 -8.0 77 2 18 24.1 101.29   -11 Cloudy
22:00 Legend Double Dagger -4.3 -7.8 77 3 21 24.1 101.26   -11 Fog
23:00 Legend Double Dagger -4.7 -8.3 76 3 22 24.1 101.25   -12 LegendNANA

Notes on Data Quality.

Legend

  • E = Estimated
  • M = Missing
  • NA = Not Available
  • ‡ = Partner data that is not subject to review by the National Climate Archives
Date modified: